Altoona, PA

5:17 PM EST on November 11, 2019 (GMT -0500)
Altoona-Blair County

Weather History for KAOO - September, 2019

Change the Weather History Date:

Saturday, September 7, 2019

  Actual Average Record
Temperature  
Mean Temperature 65 °F 65 °F  
Max Temperature 73 °F 76 °F 91 °F (1985)
Min Temperature 56 °F 54 °F 40 °F (1988)
Degree Days  
Heating Degree Days 0 2  
Month to date heating degree days 5 14  
Since 1 July heating degree days 14 46  
Cooling Degree Days 0 2  
Month to date cooling degree days 18 19  
Year to date cooling degree days 663 498  
Growing Degree Days 15 (Base 50)    
Moisture  
Dew Point 55 °F    
Average Humidity 73    
Maximum Humidity 93    
Minimum Humidity 53    
Precipitation  
Precipitation 0.00 in 0.11 in 1.42 in (2011)
Month to date precipitation 0.55 0.81  
Year to date precipitation 30.24 24.74  
Sea Level Pressure  
Sea Level Pressure 29.92 in    
Wind  
Wind Speed 6 mph (WNW)    
Max Wind Speed 15 mph    
Max Gust Speed 22 mph    
Visibility 10 miles    
Events      
T = Trace of Precipitation, MM = Missing Value Source: NWS Daily Summary

Daily Weather History Graph

Daily Weather History Graph

Search for Another Location

Airport or City:

Astronomy

Sep. 07, 2019 Rise Set
Actual Time 6:46 AM EDT 7:35 PM EDT
Civil Twilight 6:18 AM EDT 8:03 PM EDT
Nautical Twilight 5:45 AM EDT 8:35 PM EDT
Astronomical Twilight 5:11 AM EDT 9:09 PM EDT
Moon 3:50 PM EDT (9/7) 12:36 AM EDT (9/7)
Length of Visible Light 13h 44m
Length of Day
12h 49m
Waxing Gibbous, 65% of the Moon is Illuminated
Sep 7
Waxing Gibbous
Sep 14
Full
Sep 21
Last Quarter
Sep 28
New
Oct 5
First Quarter

Hourly Weather History & Observations

Time (EDT) Temp. Dew Point Humidity Pressure Visibility Wind Dir Wind Speed Gust Speed Precip Events Conditions
12:53 AM 66.9 °F 57.0 °F 70% 29.84 in 10.0 mi WNW 8.1 mph - N/A   Overcast
1:53 AM 64.9 °F 55.9 °F 73% 29.84 in 10.0 mi WNW 9.2 mph - N/A   Scattered Clouds
2:53 AM 61.0 °F 55.9 °F 83% 29.84 in 10.0 mi West 6.9 mph - N/A   Clear
3:53 AM 61.0 °F 55.9 °F 83% 29.85 in 10.0 mi WNW 9.2 mph - N/A   Clear
4:53 AM 57.9 °F 55.0 °F 90% 29.85 in 10.0 mi Calm Calm - N/A   Clear
5:53 AM 60.1 °F 54.0 °F 80% 29.88 in 10.0 mi Calm Calm - N/A   Clear
6:53 AM 57.0 °F 53.1 °F 87% 29.91 in 10.0 mi Calm Calm - N/A   Clear
7:53 AM 60.1 °F 55.0 °F 83% 29.92 in 10.0 mi Calm Calm - N/A   Clear
8:53 AM 62.1 °F 54.0 °F 75% 29.94 in 10.0 mi NW 9.2 mph - N/A   Clear
9:53 AM 64.0 °F 53.1 °F 67% 29.95 in 10.0 mi NW 11.5 mph - N/A   Clear
10:53 AM 66.9 °F 53.1 °F 61% 29.95 in 10.0 mi WNW 5.8 mph - N/A   Clear
11:53 AM 70.0 °F 52.0 °F 53% 29.94 in 10.0 mi WNW 6.9 mph 17.3 mph N/A   Scattered Clouds
12:53 PM 70.0 °F 52.0 °F 53% 29.94 in 10.0 mi WNW 9.2 mph - N/A   Overcast
1:53 PM 71.1 °F 53.1 °F 53% 29.94 in 10.0 mi NW 5.8 mph - N/A   Overcast
2:53 PM 71.1 °F 55.0 °F 57% 29.93 in 10.0 mi NW 12.7 mph 19.6 mph N/A   Overcast
3:53 PM 73.0 °F 55.9 °F 55% 29.92 in 10.0 mi West 12.7 mph - N/A   Scattered Clouds
4:53 PM 72.0 °F 55.0 °F 55% 29.92 in 10.0 mi WNW 10.4 mph - N/A   Mostly Cloudy
5:53 PM 72.0 °F 55.9 °F 57% 29.92 in 10.0 mi WNW 10.4 mph - N/A   Mostly Cloudy
6:53 PM 69.1 °F 55.9 °F 63% 29.94 in 10.0 mi West 4.6 mph - N/A   Partly Cloudy
7:53 PM 68.0 °F 55.9 °F 65% 29.96 in 10.0 mi WNW 8.1 mph - N/A   Mostly Cloudy
8:53 PM 64.9 °F 57.0 °F 75% 29.98 in 10.0 mi Calm Calm - N/A   Partly Cloudy
9:53 PM 64.0 °F 55.9 °F 75% 30.00 in 10.0 mi WNW 3.5 mph - N/A   Partly Cloudy
10:53 PM 63.0 °F 55.0 °F 75% 30.01 in 10.0 mi NW 4.6 mph - N/A   Clear
11:53 PM 60.1 °F 54.0 °F 80% 30.01 in 10.0 mi Calm Calm - N/A   Clear